Погода в Кутаиси

Погода в Кутаиси : погода сейчас, прогноз погоды и архив. Всё, что Вы хотите узнать о погоде в Кутаиси!

Поиск расширенной информации на нашем сайте:

Другие новости

Новости СМИ2

Главная страница сайта

Новости сайта

02.10.2013

Напоминаем, что на нашем новом сайте вы можете получить высокодетализированные прогнозы погоды по пунктам России, СНГ и мира (включающие важные для авиации метеовеличины, такие как направление и скорость ветра, видимость, явления погоды, количество и форма облачности, нижняя и верхняя граница облачности), а также ознакомиться с разнообразными материалами по авиационной метеорологии и подборкой полезных ссылок на эту тему.

Сайт Метеоцентр.Азия посвящён разработке технологий оптимизации авиаметеорологического обслуживания, включая проектирование и перспективное создание нескольких автоматизированных авиаметеорологических систем:
- система выпуска высокодетальных прогностических карт явлений погоды для нижнего воздушного пространства по России и ближнему зарубежью;
- система верификации прогнозов TAF (выпускаемых синоптиками официальных АМСГ РФ и ближнего зарубежья) и AUTOTAF (выпускаемых сайтом Метеоцентр.Азия) - выявление ошибок, онлайн-сопоставление с фактической погодой METAR, автоматическое внесение коррективов в прогнозы при резком отклонении фактической погоды от прогноза, подсчёт оправдываемости прогнозов по элементам и в целом;
- система обработки, анализа и отображения авиаметеорологической информации для применения провайдерами метеорологической информации.

Рекомендуем: Киноманы могут смотреть ужасы онлайн бесплатно в хорошем качестве

Погода в Кутаиси - сегодня

Время (UTC), дата Ветер
(°,м/с) 
Видим.   Явления Облачность Т
(°С)
Тd
(°С)
f(%) Тe
(°С)
Pmin
(гПа)
dP
(гПа)
Po
(мм)
O2
(г/м3)
Тmin Tmax R s Состояние
почвы
00 22.04.17 250 (З) н/о    н/о 
+8.9 +8.9 100 +8  1020.4  -0.4  755  293      0.1     
03 22.04.17 270 (З) 10 км  слаб. ливневой дождь  10/8 600 м кучево-дожд., средняя 
[Cb cap|As op]
+8 +7.1 94 +8  1020.3  -0.2  755  294         
09 22.04.17 240 (ЮЗ) 10 км  слаб. ливневой дождь  10/8 600 м кучево-дожд., средняя 
[Cb cap|As op]
+6.4 +5 91 +5  1029.5  761  299           
12 22.04.17 270 (З) 20000 м  {ливн. осадки}  10/6 1000 м средняя 
[Sc|As op]
+7.8 +3 72 +8  1027.8  -1.6  760  297           
21 22.04.17 090 (В) 10 км    6/0 средняя 
[Ac trans]
+11.8 +3.4 56 +11  1014.5  -4.3  751  289           
00 23.04.17 090 (В) 10 км    10/3 1500 м средняя 
[Sc|As op]
+16.8 +4 43 +16  1009.7  -4.5  747  283           
03 23.04.17 090 (В) 13  20000 м    8/3 1500 м средняя 
[Sc|Ac trans]
+19.6 +4.1 36 +19  1007.3  -2.2  746  280           
12 23.04.17 090 (В) 14{20}  20000 м  {ливн. осадки}  10/6 1500 м средняя 
[Sc|As op]
+19.8 +5 38 +19  1001  -2.9  741  278           
21 23.04.17 270 (З) 10 км  слаб. ливневой дождь  10/8 600 м кучево-дожд., средняя 
[Cb cap|As op]
+8 +6.7 91 +6  1018.6  2.6  753  294           
00 24.04.17 270 (З) 10 км  слаб. ливневой дождь  10/8 600 м кучево-дожд., средняя 
[Cb cap|As op]
+7.2 +6.4 95 +5  1020.7  2.1  755  295           
03 24.04.17 320 (СЗ) 20000 м  в посл. час ливневой дождь  10/6 1000 м средняя 
[Sc|As op]
+7 +6.1 94 +6  1021  0.3  755  296      16     
09 24.04.17 270 (З) 20000 м    9/6 1000 м средняя 
[Cu hum|Ac trans]
+11.8 +5.6 66 +12  1020.6  -0.5  755  291           
12 24.04.17 270 (З) 20000 м    8/4 1500 м средняя 
[Cu hum|Ac trans]
+14.6 +5.3 54 +14  1020.4  -0.1  755  288           
15 24.04.17 270 (З) 20000 м    8/4 1500 м средняя 
[Cu hum|Ac trans]
+14.4 +3.4 48 +14  1020.9  0.5  755  289    +15       
21 24.04.17 270 (З) 10 км    10/8 600 м кучево-дожд., средняя 
[Cb cap|As op]
+8 +4.8 80 +7  1024.8  1.3  758  296           
00 25.04.17 270 (З) 10 км  слаб. ливневой дождь  10/8 600 м кучево-дожд., средняя 
[Cb cap|As op]
+7 +6.4 96 +6  1025.6  0.8  759  297           
03 25.04.17 270 (З) 10 км  слаб. ливневой дождь  10/8 600 м кучево-дожд., средняя 
[Cb cap|As op]
+5.2 +4 92 +4  1028.9  761  300         
09 25.04.17 270 (З) 20000 м  {ливн. осадки}  9/5 1500 м средняя 
[Sc|Ac trans]
+7 +5 87 +6  1034.1  3.2  765  300           
12 25.04.17 240 (ЮЗ) 20000 м  {ливн. осадки}  8/4 1500 м средняя 
[Sc|Ac trans]
+9.6 +4 68 +9  1032.3  -1.7  764  297           
18 25.04.17 090 (В) 10 км    3/0 средняя 
[Ac trans]
+6 +2.6 79 +5  1031.8  0.2  763  301    +11.6       
21 25.04.17 090 (В) 10 км    3/0 средняя 
[Ac trans]
+4.4 +1.4 81 +3  1031.2  -0.7  763  302           
00 26.04.17 090 (В) 10 км    3/0 средняя 
[Ac trans]
+4.6 +1.3 79 +3  1029.7  -1.5  761  302           
03 26.04.17 090 (В) 20000 м    ясно 
+5.8 +0.1 67 +4  1028.8  -0.8  761  300           
09 26.04.17 090 (В) 13  20000 м    ясно 
+18.6 +0.9 30 +18  1026.3  -0.7  759  286           
12 26.04.17 090 (В) 13  20000 м    ясно 
+20.4 +2.3 30 +20  1024.3  -1.8  758  284           
Время (UTC), дата Ветер
(°,м/с) 
Видим.   Явления Облачность Т
(°С)
Тd
(°С)
f(%) Тe
(°С)
Pmin
(гПа)
dP
(гПа)
Po
(мм)
O2
(г/м3)
Тmin Tmax R s Состояние
почвы

Для получения пояснительной информации подведите курсор к названию столбца.

ПОГОДА в Кутаиси - архив

Всё, что Вы хотите узнать о погоде в Кутаиси - удобно и подробно!

Выберите нужную дату (начиная с 1 января 2015* года) и нажмите кнопку "Найти".
Будут отображены архивные сводки погоды по пункту Кутаиси, начиная с указанной даты.


Отображать данные в формате CSV (для использования в таблицах Excel)


Внимание! Наш архив погоды предназначен исключительно для личного некоммерческого использования в познавательных целях. Если Вам необходимы официальные справки о состоянии погоды (для производственных, юридических, коммерческих и т.п. целей), обращайтесь в органы Росгидромета.

*Примечание: данная дата относится к архиву по метеостанциям СССР (Россия, СНГ, Балтия).
Архив по метеостанциям Зарубежной Европы и Азии (кроме Китая) хранится 10 дней, по другим регионам земного шара (Китай, Африка, Америка, Австралия, Океания) - 1 день.

Кутаиси - район местоположения метеостанции


Название, широта, долгота, высота метеостанции:
Кутаиси 42.3°ш. 42.6°д. 116 м над ур. моря [Грузия]

Дополнительная информация

В oтличие oт бoльшинства пoгoдных сайтoв мы публикуем пoдрoбную метеoинфoрмацию в детальнoм прoфессиoнальнoм фoрмате.

Характеристики температуры и влажнoсти вoздуха измеряются на высoте 2 м в тени вдали oт зданий и деревьев.
Скoрoсть ветра измеряется на высoте 10 м (на урoвне рoста челoвека скoрoсть ветра ниже в 1.5-2 раза). Если метеoстанция нахoдится в гoрoде или в лесу, тo скoрoсть ветра занижена на 2-4 м/с пo сравнению с oткрытым местoм. Скoрoсть ветра над акватoриями крупных рек и oзёр, а также на вершинах хoлмoв на 2-5 м/с выше, чем в oбычных услoвиях.
Атмoсфернoе давление в разных тoчках местнoсти мoжет значительнo oтличаться oт давления на метеoстанции, в зависимoсти oт услoвий рельефа (при пoдъёме на 10 м давление пoнижается примернo на 1 мм рт.ст.).